Flag for Germany Weather past 2 weeks in Sankt Ingbert, Saarland, Germany

Now
37 °F

Overcast.


Feels Like: 33 °F
Forecast: 31 / 41 °F
Wind: 6 mph from West

Location: Saarbruecken / Ensheim

Current Time: Mar 4, 2015 at 1:26:35 AM

Latest Report: Mar 4, 2015 at 1:00 AM


Visibility: 13 mi

Pressure: 30.22 "Hg

Humidity: 94%

Dew point: 36 °F

Location of Sankt IngbertLocation

Historic Weather in Sankt Ingbert — Graph

°F

Sankt Ingbert temperature yesterday

Maximum temperature yesterday: 49 °F (at 2:00 PM)
Minimum temperature yesterday: 32 °F (at 8:00 AM)
Average temperature yesterday: 39 °F

Past Weeks' High & Low Weather Summary

 TemperatureHumidityPressure
High51 °F (Feb 20, 4:00 PM)100% (Feb 17, 10:00 AM)30.74 "Hg (Feb 17, 10:00 AM)
Low27 °F (Feb 28, 7:00 AM)46% (Feb 28, 3:00 PM)29.50 "Hg (Feb 21, 5:00 AM)
Average37 °F87%30.04 "Hg
* Reported Midnight between Feb 16 and Feb 17 — Midnight between Mar 3 and Mar 4, Sankt Ingbert, Weather by CustomWeather, © 2015

Note: Actual official high and low records may vary slightly from our data, if they occured in-between our weather recording intervals... More about our weather records

Advertising

Sankt Ingbert weather history for previous 24 hours

 ConditionsComfort  
Time TempWeatherWind HumidityBarometerVisibility
12:00 AM
Wed, Mar 4
37 °FOvercast.3 mph95%30.21 "Hg12 mi
11:00 PM
Tue, Mar 3
37 °FLight rain. Low clouds.5 mph93%30.19 "Hg12 mi
10:00 PM37 °FLight rain. Low clouds.5 mph97%30.18 "Hg12 mi
9:00 PM39 °FSprinkles. Low clouds.12 mph91%30.16 "Hg16 mi
8:00 PM46 °FLight rain. Overcast.8 mph60%30.11 "Hg25 mi
7:00 PM46 °FOvercast.6 mph58%30.11 "Hg25 mi
6:00 PM46 °FOvercast.7 mph56%30.10 "Hg31 mi
5:00 PM47 °FOvercast.8 mph54%30.11 "Hg37 mi
4:00 PM48 °FPartly sunny.10 mph51%30.11 "Hg37 mi
3:00 PM49 °FPartly sunny.10 mph50%30.13 "Hg37 mi
2:00 PM49 °FPartly sunny.8 mph58%30.14 "Hg37 mi
1:00 PM47 °FPartly sunny.9 mph66%30.16 "Hg37 mi
12:00 PM43 °FPartly sunny.6 mph68%30.19 "Hg37 mi
11:00 AM41 °FScattered clouds.5 mph72%30.21 "Hg37 mi
10:00 AM37 °FPartly sunny.6 mph81%30.23 "Hg34 mi
9:00 AM34 °FScattered clouds.6 mph84%30.24 "Hg34 mi
8:00 AM32 °FPartly sunny.5 mph89%30.23 "Hg28 mi
7:00 AM33 °FPassing clouds.3 mph89%30.22 "Hg12 mi
6:00 AM33 °FPassing clouds.6 mph91%30.22 "Hg14 mi
5:00 AM33 °FPassing clouds.3 mph91%30.21 "Hg16 mi
4:00 AM33 °FPassing clouds.5 mph89%30.21 "Hg16 mi
3:00 AM33 °FPassing clouds.5 mph88%30.21 "Hg16 mi
2:00 AM34 °FPassing clouds.6 mph85%30.19 "Hg16 mi
1:00 AM35 °FPassing clouds.3 mph83%30.18 "Hg16 mi
Weather by CustomWeather, © 2015

See weather overviewHow to use our weather pages